Regional Weather Roundup
Issued by NWS Cleveland, OH

Home | Current Version | Previous Version | Text Only | Print | Product List | Glossary Off
Versions: 1 2 3 4 5 6 7 8 9 10 11 12 13 14 15 16 17 18 19 20 21 22 23 24 25 26 27 28 29 30 31 32 33 34 35 36 37 38 39 40 41 42 43 44 45 46 47 48 49 50

000
ASUS41 KCLE 251410
RWRCLE
OHIO REGIONAL WEATHER ROUNDUP
NATIONAL WEATHER SERVICE CLEVELAND, OH
1000 AM EDT MON SEP 25 2017

NOTE: "FAIR" INDICATES FEW OR NO CLOUDS BELOW 12,000 FEET WITH NO
SIGNIFICANT WEATHER AND/OR OBSTRUCTIONS TO VISIBILITY.

OHZ001>008-015>018-024>027-034-035-043-044-251500-
   NORTHWEST OHIO

CITY           SKY/WX    TMP DP  RH WIND       PRES   REMARKS
DEFIANCE       SUNNY     70  66  87 CALM      30.08R FOG
FINDLAY        SUNNY     76  64  66 CALM      30.07S
TOLEDO EXPRESS MOSUNNY   75  70  84 CALM      30.07S
TOLEDO EXEC    MOSUNNY   76  66  71 SW3       30.08R
LIMA           SUNNY     77  63  61 CALM      30.09R
$$

OHZ009>014-019>023-028>033-038-089-251500-
   NORTHEAST OHIO

CITY           SKY/WX    TMP DP  RH WIND       PRES   REMARKS
CLE-HOPKINS    MOSUNNY   83  65  54 S5        30.10S
CLE-LAKEFRONT  SUNNY     81  64  56 SE6       30.07S
CUY CO. ARPT   MOSUNNY   82  66  57 SE9       30.10S
LORAIN-ELYRIA  SUNNY     77  62  59 SW5       30.09S
ASHTABULA      SUNNY     76  67  73 S7        30.12S
AKRON-CANTON   MOSUNNY   77  64  64 SE5       30.12R
WOOSTER        SUNNY     75  65  70 CALM      30.11S
MANSFIELD      SUNNY     78  64  61 SE7       30.11R
YOUNGSTOWN     PTSUNNY   74  66  76 E7        30.13R
$$

OHZ042-051>053-060>062-070>072-077>081-251500-
  SOUTHWEST OHIO

CITY           SKY/WX    TMP DP  RH WIND       PRES   REMARKS
CINC-COVINGTON MOSUNNY   75  64  68 CALM      30.08R
CINC-LUNKEN    SUNNY     70  65  84 CALM      30.08R
HAMILTON       SUNNY     72  64  76 CALM      30.08S
DAYTON         MOSUNNY   74  62  66 CALM      30.09S
WRIGHT-PAT AFB SUNNY     71  64  79 CALM      30.08R
DAYTON GENERAL SUNNY     74  62  66 CALM      30.08R
WILMINGTON     SUNNY     77  67  71 CALM      30.08R
$$

OHZ036-037-039>041-045>050-054>059-063>069-073>076-082>088-251500-
  CENTRAL AND SOUTHEAST OHIO

CITY           SKY/WX    TMP DP  RH WIND       PRES   REMARKS
COLUMBUS       MOSUNNY   77  65  66 CALM      30.07S
OSU AIRPORT    MOSUNNY   75  66  73 E5        30.08S
BOLTON FIELD   SUNNY     75  64  69 SE5       30.09R
RICKENBACK AFB MOSUNNY   73  66  78 CALM      30.08R
NEWARK         MOSUNNY   75  64  68 CALM      30.09R
MARION         SUNNY     77  63  61 SE5       30.09S
LANCASTER      SUNNY     73  66  78 CALM      30.09R
ZANESVILLE     MOSUNNY   74  64  71 CALM      30.10R
NEW PHILLY     NOT AVBL
$$




USA.gov is the U.S. government's official web portal to all federal, state and local government web resources and services.